TAE551 KJFK-SEGU

Flight info

Callsign TAE551
Flight time N/A
Altitude 40000
Route WAVEY DCT EMJAY Q167 ZJAAY DCT KALDA DCT TUGGR Q101 SKARP DCT IDOLS DCT JAZZI Y319 URSUS UL780 UGUPI
Aircraft A332/H-SDE3GHIJ2J3J5M1RVWXY/LB2D1

Departure

Time N/A
Airport John F. Kennedy International Airport (KJFK)

Arrival

Time 2026-04-22 16:50
Airport José Joaquín de Olmedo International Airport (SEGU)
Time Latitude Longitude Altitude Speed Heading
2026-04-22 14:27 15.17952 -79.32239 38048 ft 465 kts 185°
2026-04-22 14:27 15.11463 -79.32455 38048 ft 467 kts 185°
2026-04-22 14:28 15.05011 -79.32668 38047 ft 467 kts 185°
2026-04-22 14:28 14.98516 -79.32888 38048 ft 467 kts 185°
2026-04-22 14:29 14.92034 -79.33137 38045 ft 466 kts 185°
2026-04-22 14:29 14.85542 -79.33396 38045 ft 466 kts 185°
2026-04-22 14:30 14.79066 -79.33653 38043 ft 466 kts 185°
2026-04-22 14:30 14.72585 -79.33908 38046 ft 466 kts 185°
2026-04-22 14:31 14.66102 -79.34161 38041 ft 466 kts 185°
2026-04-22 14:31 14.59625 -79.34414 38043 ft 465 kts 185°
2026-04-22 14:32 14.53200 -79.34665 38042 ft 465 kts 185°
2026-04-22 14:32 14.46729 -79.34918 38043 ft 465 kts 185°
2026-04-22 14:33 14.40257 -79.35171 38037 ft 465 kts 185°
2026-04-22 14:33 14.33790 -79.35423 38040 ft 465 kts 185°
2026-04-22 14:34 14.27326 -79.35675 38043 ft 465 kts 185°
2026-04-22 14:34 14.20856 -79.35927 38039 ft 465 kts 185°
2026-04-22 14:35 14.14387 -79.36179 38039 ft 465 kts 185°
2026-04-22 14:35 14.07917 -79.36431 38038 ft 465 kts 185°
2026-04-22 14:36 14.01450 -79.36683 38038 ft 465 kts 185°
2026-04-22 14:36 13.94982 -79.36934 38036 ft 465 kts 185°
2026-04-22 14:37 13.88515 -79.37185 38036 ft 465 kts 185°
2026-04-22 14:37 13.82090 -79.37435 38035 ft 464 kts 185°
2026-04-22 14:38 13.75630 -79.37686 38035 ft 464 kts 185°
2026-04-22 14:38 13.69156 -79.37937 38034 ft 465 kts 185°
2026-04-22 14:39 13.62738 -79.38186 38021 ft 465 kts 185°
2026-04-22 14:39 13.56278 -79.38436 38034 ft 464 kts 185°
2026-04-22 14:40 13.46603 -79.38810 38034 ft 463 kts 185°
2026-04-22 14:40 13.40165 -79.39060 38035 ft 463 kts 185°
2026-04-22 14:41 13.33718 -79.39309 38034 ft 463 kts 185°
2026-04-22 14:41 13.27312 -79.39557 38028 ft 463 kts 185°
2026-04-22 14:42 13.20877 -79.39805 38032 ft 463 kts 185°
2026-04-22 14:42 13.14444 -79.40054 38031 ft 463 kts 185°
2026-04-22 14:43 13.08006 -79.40302 38033 ft 462 kts 185°
2026-04-22 14:43 13.01572 -79.40550 38033 ft 462 kts 185°
2026-04-22 14:44 12.95141 -79.40798 38030 ft 462 kts 185°
2026-04-22 14:44 12.88704 -79.41046 38028 ft 463 kts 185°
2026-04-22 14:45 12.82303 -79.41293 38029 ft 463 kts 185°
2026-04-22 14:45 12.75855 -79.41541 38029 ft 463 kts 185°
2026-04-22 14:46 12.70466 -79.41748 38029 ft 463 kts 185°
2026-04-22 14:46 12.64054 -79.41995 38026 ft 463 kts 185°
2026-04-22 14:47 12.57619 -79.42242 38026 ft 463 kts 185°
2026-04-22 14:47 12.51174 -79.42490 38026 ft 463 kts 185°
2026-04-22 14:48 12.44733 -79.42737 38027 ft 463 kts 185°
2026-04-22 14:48 12.38299 -79.42984 38026 ft 462 kts 185°
2026-04-22 14:49 12.31877 -79.43230 38026 ft 461 kts 185°
2026-04-22 14:49 12.25454 -79.43477 38023 ft 461 kts 185°
2026-04-22 14:50 12.19037 -79.43723 38021 ft 461 kts 184°
2026-04-22 14:50 12.12650 -79.43968 38026 ft 462 kts 184°
2026-04-22 14:51 12.06222 -79.44214 38026 ft 462 kts 184°
2026-04-22 14:51 11.99793 -79.44460 38026 ft 462 kts 184°
2026-04-22 14:52 11.93372 -79.44705 38021 ft 462 kts 184°
2026-04-22 14:52 11.86925 -79.44952 38021 ft 462 kts 184°
2026-04-22 14:53 11.80532 -79.45196 38017 ft 463 kts 184°
2026-04-22 14:53 11.74090 -79.45442 38018 ft 463 kts 184°
2026-04-22 14:54 11.67639 -79.45688 38018 ft 463 kts 184°
2026-04-22 14:54 11.61194 -79.45934 38017 ft 463 kts 184°
2026-04-22 14:55 11.54737 -79.46181 38018 ft 463 kts 184°
2026-04-22 14:55 11.48290 -79.46426 38017 ft 463 kts 184°
2026-04-22 14:56 11.41887 -79.46671 38018 ft 464 kts 183°
2026-04-22 14:56 11.35432 -79.46916 38018 ft 464 kts 183°
2026-04-22 14:57 11.28967 -79.47163 38018 ft 464 kts 183°
2026-04-22 14:57 11.22512 -79.47408 38018 ft 464 kts 183°
2026-04-22 14:58 11.16054 -79.47654 38018 ft 464 kts 184°
2026-04-22 14:58 11.09592 -79.47900 38014 ft 464 kts 183°
2026-04-22 14:59 11.03167 -79.48144 38017 ft 465 kts 183°
2026-04-22 14:59 10.96698 -79.48390 38018 ft 465 kts 183°
2026-04-22 15:00 10.90226 -79.48635 38021 ft 465 kts 183°
2026-04-22 15:00 10.83759 -79.48881 38019 ft 465 kts 183°
2026-04-22 15:01 10.77288 -79.49126 38018 ft 465 kts 183°
2026-04-22 15:01 10.70822 -79.49371 38018 ft 465 kts 183°
2026-04-22 15:02 10.64351 -79.49617 38017 ft 465 kts 183°
2026-04-22 15:02 10.57876 -79.49862 38017 ft 465 kts 183°
2026-04-22 15:03 10.51406 -79.50106 38018 ft 465 kts 183°
2026-04-22 15:03 10.44931 -79.50337 38017 ft 465 kts 183°
2026-04-22 15:04 10.38507 -79.50563 38015 ft 465 kts 183°
2026-04-22 15:04 10.32024 -79.50792 38018 ft 466 kts 183°
2026-04-22 15:05 10.25539 -79.51021 38017 ft 466 kts 182°
2026-04-22 15:05 10.19048 -79.51251 38018 ft 466 kts 183°
2026-04-22 15:06 10.12557 -79.51481 38018 ft 467 kts 183°
2026-04-22 15:06 10.06066 -79.51711 38017 ft 466 kts 182°
2026-04-22 15:07 9.99570 -79.51941 38019 ft 467 kts 182°
2026-04-22 15:07 9.93102 -79.52170 38017 ft 468 kts 182°
2026-04-22 15:08 9.86581 -79.52401 38017 ft 469 kts 182°
2026-04-22 15:08 9.80056 -79.52631 38016 ft 469 kts 182°
2026-04-22 15:09 9.73540 -79.52862 38015 ft 469 kts 182°
2026-04-22 15:09 9.67015 -79.53092 38015 ft 468 kts 182°
2026-04-22 15:10 9.60531 -79.53321 38018 ft 468 kts 182°
2026-04-22 15:10 9.54026 -79.53550 38018 ft 468 kts 183°
2026-04-22 15:11 9.47519 -79.53780 38016 ft 468 kts 182°
2026-04-22 15:11 9.41013 -79.54010 38013 ft 468 kts 182°
2026-04-22 15:12 9.34502 -79.54239 38008 ft 468 kts 182°
2026-04-22 15:12 9.27995 -79.54469 38005 ft 467 kts 182°
2026-04-22 15:13 9.21535 -79.54696 37995 ft 467 kts 182°
2026-04-22 15:13 9.15032 -79.54925 37997 ft 467 kts 182°
2026-04-22 15:14 9.08536 -79.55154 37992 ft 467 kts 182°
2026-04-22 15:14 9.02040 -79.55382 37993 ft 467 kts 182°
2026-04-22 15:15 8.95577 -79.55610 37994 ft 467 kts 182°
2026-04-22 15:15 8.89090 -79.55838 37993 ft 466 kts 182°
2026-04-22 15:16 8.82599 -79.56067 37993 ft 466 kts 182°
2026-04-22 15:16 8.76117 -79.56287 37992 ft 466 kts 182°
2026-04-22 15:17 8.69644 -79.56480 37988 ft 466 kts 181°
2026-04-22 15:17 8.63159 -79.56668 37989 ft 466 kts 181°
2026-04-22 15:18 8.56677 -79.56858 37985 ft 466 kts 181°
2026-04-22 15:18 8.50195 -79.57050 37990 ft 465 kts 181°
2026-04-22 15:19 8.43731 -79.57243 37990 ft 464 kts 181°
2026-04-22 15:19 8.37303 -79.57434 37992 ft 465 kts 181°
2026-04-22 15:20 8.30831 -79.57626 37996 ft 465 kts 181°
2026-04-22 15:20 8.24362 -79.57818 37999 ft 465 kts 181°
2026-04-22 15:21 8.17886 -79.58010 37998 ft 465 kts 181°
2026-04-22 15:21 8.11414 -79.58202 37997 ft 465 kts 181°
2026-04-22 15:22 8.04948 -79.58393 38005 ft 465 kts 181°
2026-04-22 15:22 7.98523 -79.58584 38004 ft 465 kts 181°
2026-04-22 15:23 7.92051 -79.58776 38004 ft 465 kts 181°
2026-04-22 15:23 7.85582 -79.58967 38005 ft 465 kts 181°
2026-04-22 15:24 7.79118 -79.59159 38003 ft 465 kts 181°
2026-04-22 15:24 7.72639 -79.59350 38005 ft 465 kts 181°
2026-04-22 15:25 7.66158 -79.59542 38006 ft 465 kts 181°
2026-04-22 15:25 7.59684 -79.59734 38000 ft 465 kts 181°
2026-04-22 15:26 7.53251 -79.59924 38001 ft 465 kts 181°
2026-04-22 15:26 7.46778 -79.60115 38002 ft 465 kts 181°
2026-04-22 15:27 7.40316 -79.60306 37999 ft 464 kts 181°
2026-04-22 15:27 7.33872 -79.60497 37999 ft 463 kts 181°
2026-04-22 15:28 7.27446 -79.60687 37998 ft 463 kts 181°
2026-04-22 15:28 7.20994 -79.60871 37998 ft 463 kts 181°
2026-04-22 15:29 7.14553 -79.61052 38000 ft 463 kts 181°
2026-04-22 15:30 7.05924 -79.61296 38001 ft 463 kts 181°
2026-04-22 15:30 6.98442 -79.61508 38002 ft 463 kts 181°
2026-04-22 15:31 6.91988 -79.61691 38001 ft 463 kts 181°
2026-04-22 15:31 6.85543 -79.61874 37998 ft 463 kts 181°
2026-04-22 15:32 6.79094 -79.62057 37999 ft 463 kts 181°
2026-04-22 15:32 6.72652 -79.62239 38003 ft 463 kts 181°
2026-04-22 15:33 6.66209 -79.62422 38002 ft 463 kts 181°
2026-04-22 15:33 6.60860 -79.62573 38002 ft 463 kts 181°
2026-04-22 15:34 6.54425 -79.62755 37998 ft 462 kts 181°
2026-04-22 15:34 6.47987 -79.62937 37998 ft 463 kts 181°
2026-04-22 15:35 6.41545 -79.63120 38000 ft 463 kts 181°
2026-04-22 15:35 6.35106 -79.63302 37999 ft 463 kts 181°
2026-04-22 15:36 6.28662 -79.63484 37998 ft 463 kts 181°
2026-04-22 15:36 6.22224 -79.63666 37997 ft 463 kts 181°
2026-04-22 15:37 6.15818 -79.63847 38000 ft 463 kts 181°
2026-04-22 15:37 6.09373 -79.64029 38002 ft 463 kts 181°
2026-04-22 15:38 6.02929 -79.64211 37998 ft 463 kts 181°
2026-04-22 15:38 5.93271 -79.64484 38000 ft 462 kts 180°
2026-04-22 15:39 5.86838 -79.64665 38001 ft 462 kts 180°
2026-04-22 15:39 5.80405 -79.64847 38003 ft 462 kts 180°
2026-04-22 15:40 5.74019 -79.65027 38000 ft 462 kts 180°
2026-04-22 15:40 5.67588 -79.65208 38003 ft 462 kts 180°
2026-04-22 15:41 5.61115 -79.65391 38002 ft 462 kts 180°
2026-04-22 15:41 5.54725 -79.65571 38002 ft 462 kts 180°
2026-04-22 15:42 5.48286 -79.65753 38003 ft 463 kts 180°
2026-04-22 15:42 5.41849 -79.65934 38001 ft 463 kts 180°
2026-04-22 15:43 5.35412 -79.66116 38000 ft 463 kts 180°
2026-04-22 15:43 5.28975 -79.66297 37999 ft 463 kts 180°
2026-04-22 15:44 5.22532 -79.66479 38001 ft 463 kts 180°
2026-04-22 15:44 5.16104 -79.66667 37998 ft 462 kts 180°
2026-04-22 15:45 5.09716 -79.66932 37998 ft 462 kts 180°
2026-04-22 15:45 5.03290 -79.67232 37998 ft 462 kts 180°
2026-04-22 15:46 4.96865 -79.67529 38001 ft 462 kts 180°
2026-04-22 15:46 4.90434 -79.67819 37998 ft 462 kts 180°
2026-04-22 15:47 4.84007 -79.68106 37997 ft 462 kts 180°
2026-04-22 15:47 4.77592 -79.68392 38000 ft 462 kts 180°
2026-04-22 15:48 4.71161 -79.68679 38001 ft 462 kts 180°
2026-04-22 15:48 4.64740 -79.68965 38000 ft 462 kts 180°
2026-04-22 15:49 4.58364 -79.69250 38000 ft 462 kts 180°
2026-04-22 15:49 4.51939 -79.69536 38002 ft 462 kts 180°
2026-04-22 15:50 4.45521 -79.69823 38001 ft 462 kts 180°
2026-04-22 15:50 4.39100 -79.70109 38000 ft 462 kts 180°
2026-04-22 15:51 4.32683 -79.70395 37998 ft 462 kts 180°
2026-04-22 15:51 4.26265 -79.70681 38000 ft 461 kts 180°
2026-04-22 15:52 4.19834 -79.70968 37999 ft 461 kts 180°
2026-04-22 15:52 4.13422 -79.71254 37999 ft 462 kts 180°
2026-04-22 15:53 4.07003 -79.71540 37995 ft 461 kts 180°
2026-04-22 15:53 4.00629 -79.71824 38000 ft 461 kts 180°
2026-04-22 15:54 3.94210 -79.72110 37999 ft 461 kts 180°
2026-04-22 15:54 3.87797 -79.72395 37994 ft 461 kts 180°
2026-04-22 15:55 3.81376 -79.72681 37992 ft 461 kts 180°
2026-04-22 15:55 3.74962 -79.72967 37996 ft 461 kts 180°
2026-04-22 15:56 3.68549 -79.73253 37993 ft 462 kts 180°
2026-04-22 15:56 3.62118 -79.73539 37994 ft 462 kts 180°
2026-04-22 15:57 3.55695 -79.73825 37993 ft 462 kts 180°
2026-04-22 15:57 3.49314 -79.74109 37993 ft 462 kts 180°
2026-04-22 15:58 3.42892 -79.74394 37993 ft 462 kts 180°
2026-04-22 15:58 3.36471 -79.74680 37993 ft 462 kts 180°
2026-04-22 15:59 3.30044 -79.74966 37993 ft 462 kts 180°
2026-04-22 15:59 3.23624 -79.75252 37993 ft 462 kts 180°
2026-04-22 16:00 3.17184 -79.75538 37995 ft 462 kts 180°
2026-04-22 16:00 3.10773 -79.75823 37994 ft 462 kts 180°
2026-04-22 16:01 3.04343 -79.76109 37990 ft 462 kts 180°
2026-04-22 16:01 2.97954 -79.76393 37993 ft 462 kts 180°
2026-04-22 16:02 2.91530 -79.76678 37993 ft 463 kts 180°
2026-04-22 16:02 2.85106 -79.76964 37993 ft 463 kts 180°
2026-04-22 16:03 2.78656 -79.77251 37993 ft 463 kts 180°
2026-04-22 16:03 2.72226 -79.77536 37993 ft 463 kts 180°
2026-04-22 16:04 2.65788 -79.77823 37990 ft 463 kts 180°
2026-04-22 16:04 2.59391 -79.78107 37990 ft 463 kts 179°
2026-04-22 16:05 2.52947 -79.78393 37990 ft 464 kts 179°
2026-04-22 16:05 2.46491 -79.78679 37990 ft 464 kts 179°
2026-04-22 16:06 2.40040 -79.78966 37990 ft 464 kts 179°
2026-04-22 16:06 2.33580 -79.79253 37990 ft 464 kts 179°
2026-04-22 16:07 2.27125 -79.79540 37993 ft 464 kts 179°
2026-04-22 16:07 2.20674 -79.79826 37994 ft 464 kts 179°
2026-04-22 16:08 2.14218 -79.80113 37992 ft 465 kts 179°
2026-04-22 16:08 2.07798 -79.80398 37990 ft 464 kts 179°
2026-04-22 16:09 2.01341 -79.80685 37992 ft 464 kts 179°
2026-04-22 16:09 1.94881 -79.80971 37990 ft 464 kts 179°
2026-04-22 16:10 1.88419 -79.81258 37989 ft 464 kts 179°
2026-04-22 16:10 1.81945 -79.81545 37990 ft 466 kts 179°
2026-04-22 16:11 1.75446 -79.81833 37986 ft 468 kts 179°
2026-04-22 16:11 1.68981 -79.82120 37989 ft 468 kts 179°
2026-04-22 16:12 1.62478 -79.82409 37986 ft 468 kts 179°
2026-04-22 16:12 1.55970 -79.82698 37989 ft 468 kts 179°
2026-04-22 16:13 1.49466 -79.82987 37983 ft 468 kts 179°
2026-04-22 16:13 1.42949 -79.83303 37983 ft 470 kts 183°
2026-04-22 16:14 1.36559 -79.84611 37989 ft 473 kts 190°
2026-04-22 16:14 1.30143 -79.86160 37988 ft 474 kts 190°
2026-04-22 16:15 1.23731 -79.87726 37988 ft 474 kts 190°
2026-04-22 16:15 1.17327 -79.89294 37988 ft 474 kts 190°
2026-04-22 16:16 1.10919 -79.90864 37984 ft 474 kts 191°
2026-04-22 16:16 1.04518 -79.92432 37985 ft 474 kts 191°
2026-04-22 16:17 0.98149 -79.93993 37986 ft 474 kts 191°
2026-04-22 16:17 0.91736 -79.95564 37985 ft 474 kts 191°
2026-04-22 16:18 0.85331 -79.97133 37985 ft 474 kts 191°
2026-04-22 16:18 0.78918 -79.98703 37986 ft 474 kts 191°
2026-04-22 16:19 0.72507 -80.00274 37984 ft 474 kts 191°
2026-04-22 16:19 0.66146 -80.01832 37982 ft 473 kts 191°
2026-04-22 16:20 0.59744 -80.03400 37982 ft 473 kts 191°
2026-04-22 16:20 0.53345 -80.04967 37984 ft 473 kts 191°
2026-04-22 16:21 0.46942 -80.06536 37980 ft 473 kts 191°
2026-04-22 16:21 0.40539 -80.08104 37974 ft 473 kts 191°
2026-04-22 16:22 0.30989 -80.10443 37975 ft 473 kts 191°
2026-04-22 16:23 0.22430 -80.12539 37976 ft 473 kts 191°
2026-04-22 16:23 0.16073 -80.14096 37978 ft 473 kts 191°
2026-04-22 16:24 0.06480 -80.16445 37982 ft 473 kts 191°
2026-04-22 16:25 0.00094 -80.18010 37966 ft 472 kts 191°
2026-04-22 16:25 -0.09472 -80.20352 37967 ft 471 kts 191°
2026-04-22 16:26 -0.15839 -80.21912 37967 ft 471 kts 191°
2026-04-22 16:26 -0.22204 -80.23470 37941 ft 472 kts 191°
2026-04-22 16:27 -0.25390 -80.24251 37708 ft 471 kts 191°
2026-04-22 16:27 -0.28580 -80.25032 37440 ft 472 kts 191°
2026-04-22 16:27 -0.31761 -80.25811 37192 ft 472 kts 191°
2026-04-22 16:27 -0.34967 -80.26596 36943 ft 473 kts 191°
2026-04-22 16:28 -0.38156 -80.27378 36558 ft 471 kts 191°
2026-04-22 16:28 -0.41299 -80.28147 35972 ft 471 kts 191°
2026-04-22 16:28 -0.44499 -80.28931 35294 ft 474 kts 191°
2026-04-22 16:28 -0.47715 -80.29718 34594 ft 477 kts 191°
2026-04-22 16:29 -0.50952 -80.30510 33839 ft 481 kts 192°
2026-04-22 16:29 -0.54218 -80.31310 33013 ft 483 kts 192°
2026-04-22 16:29 -0.57481 -80.32109 32207 ft 485 kts 192°
2026-04-22 16:29 -0.60766 -80.32914 31412 ft 486 kts 192°
2026-04-22 16:30 -0.62946 -80.33448 30865 ft 488 kts 192°
2026-04-22 16:30 -0.67378 -80.34534 29661 ft 492 kts 192°
2026-04-22 16:30 -0.70694 -80.35347 29042 ft 487 kts 192°
2026-04-22 16:30 -0.73967 -80.36149 28489 ft 481 kts 192°
2026-04-22 16:31 -0.77200 -80.36941 27910 ft 476 kts 192°
2026-04-22 16:31 -0.80406 -80.37727 27342 ft 471 kts 192°
2026-04-22 16:31 -0.83566 -80.38501 26776 ft 466 kts 192°
2026-04-22 16:31 -0.86663 -80.39260 26208 ft 462 kts 193°
2026-04-22 16:32 -0.89772 -80.40021 25646 ft 458 kts 193°
2026-04-22 16:32 -0.92854 -80.40776 25082 ft 454 kts 193°
2026-04-22 16:32 -0.95908 -80.41525 24520 ft 451 kts 193°
2026-04-22 16:32 -0.98946 -80.42269 23956 ft 448 kts 193°
2026-04-22 16:33 -1.01968 -80.43009 23354 ft 445 kts 193°
2026-04-22 16:33 -1.04963 -80.43743 22736 ft 441 kts 193°
2026-04-22 16:33 -1.07915 -80.44466 22176 ft 435 kts 193°
2026-04-22 16:33 -1.10848 -80.45185 21627 ft 430 kts 194°
2026-04-22 16:34 -1.13737 -80.45892 21082 ft 425 kts 194°
2026-04-22 16:34 -1.16598 -80.46576 20526 ft 421 kts 192°
2026-04-22 16:34 -1.19502 -80.46852 19873 ft 421 kts 178°
2026-04-22 16:34 -1.22366 -80.46249 19208 ft 422 kts 159°
2026-04-22 16:35 -1.24871 -80.44826 18662 ft 420 kts 145°
2026-04-22 16:35 -1.27176 -80.43043 18102 ft 416 kts 142°
2026-04-22 16:35 -1.29413 -80.41230 17531 ft 411 kts 142°
2026-04-22 16:35 -1.31618 -80.39441 17012 ft 406 kts 142°
2026-04-22 16:36 -1.33807 -80.37674 16472 ft 403 kts 142°
2026-04-22 16:36 -1.35978 -80.35928 16003 ft 397 kts 142°
2026-04-22 16:36 -1.38126 -80.34206 15489 ft 394 kts 142°
2026-04-22 16:36 -1.40253 -80.32502 14986 ft 390 kts 142°
2026-04-22 16:37 -1.42348 -80.30826 14736 ft 379 kts 142°
2026-04-22 16:37 -1.44371 -80.29207 14530 ft 366 kts 142°
2026-04-22 16:37 -1.46302 -80.27663 14370 ft 354 kts 142°
2026-04-22 16:37 -1.48191 -80.26152 14213 ft 342 kts 142°
2026-04-22 16:38 -1.50016 -80.24692 14069 ft 331 kts 142°
2026-04-22 16:38 -1.51788 -80.23276 13914 ft 320 kts 142°
2026-04-22 16:38 -1.53505 -80.21903 13653 ft 314 kts 142°
2026-04-22 16:38 -1.55221 -80.20530 13163 ft 316 kts 142°
2026-04-22 16:39 -1.56936 -80.19147 12733 ft 315 kts 141°
2026-04-22 16:39 -1.58656 -80.17758 12137 ft 321 kts 141°
2026-04-22 16:39 -1.60405 -80.16346 11541 ft 326 kts 141°
2026-04-22 16:39 -1.62180 -80.14912 10943 ft 329 kts 141°
2026-04-22 16:40 -1.63962 -80.13473 10474 ft 328 kts 141°
2026-04-22 16:40 -1.65706 -80.12063 10151 ft 315 kts 141°
2026-04-22 16:40 -1.68949 -80.09444 9634 ft 300 kts 141°
2026-04-22 16:41 -1.70590 -80.08117 9099 ft 304 kts 141°
2026-04-22 16:41 -1.72218 -80.06802 8845 ft 297 kts 141°
2026-04-22 16:41 -1.73817 -80.05510 8529 ft 294 kts 141°
2026-04-22 16:41 -1.75401 -80.04230 8179 ft 291 kts 141°
2026-04-22 16:42 -1.76971 -80.02961 7818 ft 289 kts 141°
2026-04-22 16:42 -1.78533 -80.01699 7469 ft 288 kts 141°
2026-04-22 16:42 -1.80082 -80.00447 7118 ft 285 kts 141°
2026-04-22 16:42 -1.81624 -79.99202 6755 ft 283 kts 141°
2026-04-22 16:43 -1.83151 -79.97967 6410 ft 282 kts 141°
2026-04-22 16:43 -1.84672 -79.96738 6045 ft 280 kts 141°
2026-04-22 16:43 -1.86166 -79.95531 5687 ft 278 kts 141°
2026-04-22 16:43 -1.87666 -79.94319 5316 ft 277 kts 141°
2026-04-22 16:44 -1.89159 -79.93112 4962 ft 275 kts 141°
2026-04-22 16:44 -1.90648 -79.91909 4608 ft 273 kts 141°
2026-04-22 16:44 -1.92130 -79.90711 4207 ft 272 kts 141°
2026-04-22 16:44 -1.93600 -79.89524 3842 ft 271 kts 141°
2026-04-22 16:45 -1.94997 -79.88315 3610 ft 266 kts 133°
2026-04-22 16:45 -1.96070 -79.86862 3429 ft 254 kts 122°
2026-04-22 16:45 -1.96951 -79.85386 3258 ft 241 kts 120°
2026-04-22 16:45 -1.97769 -79.83966 3087 ft 229 kts 120°
2026-04-22 16:46 -1.98542 -79.82628 2931 ft 217 kts 121°
2026-04-22 16:46 -1.99462 -79.81454 2755 ft 214 kts 139°
2026-04-22 16:46 -2.00757 -79.80750 2592 ft 213 kts 165°
2026-04-22 16:46 -2.02224 -79.80724 2420 ft 212 kts 193°
2026-04-22 16:47 -2.03581 -79.81285 2256 ft 212 kts 208°
2026-04-22 16:47 -2.04829 -79.82002 2086 ft 205 kts 211°
2026-04-22 16:47 -2.06018 -79.82712 1982 ft 192 kts 211°
2026-04-22 16:47 -2.07133 -79.83373 1790 ft 182 kts 211°
2026-04-22 16:48 -2.08199 -79.83999 1559 ft 172 kts 210°
2026-04-22 16:48 -2.09190 -79.84577 1328 ft 158 kts 210°
2026-04-22 16:48 -2.10107 -79.85109 1109 ft 147 kts 210°
2026-04-22 16:48 -2.10964 -79.85605 936 ft 137 kts 210°
2026-04-22 16:49 -2.11789 -79.86082 776 ft 137 kts 210°
2026-04-22 16:49 -2.12599 -79.86554 597 ft 138 kts 210°
2026-04-22 16:49 -2.13426 -79.87039 386 ft 138 kts 208°
2026-04-22 16:49 -2.14259 -79.87509 207 ft 138 kts 210°
2026-04-22 16:50 -2.15088 -79.87988 40 ft 137 kts 210°
2026-04-22 16:50 -2.15808 -79.88400 30 ft 93 kts 210°
2026-04-22 16:50 -2.16176 -79.88616 33 ft 31 kts 210°
2026-04-22 16:50 -2.16302 -79.88689 32 ft 17 kts 210°
2026-04-22 16:51 -2.16339 -79.88753 31 ft 11 kts 282°
2026-04-22 16:51 -2.16293 -79.88784 32 ft 10 kts 358°
2026-04-22 16:51 -2.16229 -79.88756 32 ft 9 kts 31°
2026-04-22 16:51 -2.16170 -79.88722 32 ft 11 kts 30°
2026-04-22 16:52 -2.16099 -79.88681 33 ft 13 kts 30°
2026-04-22 16:52 -2.16030 -79.88641 32 ft 12 kts 30°
2026-04-22 16:52 -2.15952 -79.88596 32 ft 14 kts 30°
2026-04-22 16:52 -2.15864 -79.88546 32 ft 14 kts 30°
2026-04-22 16:53 -2.15781 -79.88498 32 ft 14 kts 30°
2026-04-22 16:53 -2.15698 -79.88449 32 ft 13 kts 30°
2026-04-22 16:53 -2.15615 -79.88401 31 ft 15 kts 30°
2026-04-22 16:53 -2.15530 -79.88353 32 ft 14 kts 30°
2026-04-22 16:54 -2.15449 -79.88306 31 ft 9 kts 30°
2026-04-22 16:54 -2.15392 -79.88273 31 ft 9 kts 30°
2026-04-22 16:54 -2.15333 -79.88239 31 ft 10 kts 30°
2026-04-22 16:54 -2.15273 -79.88225 32 ft 8 kts 334°
2026-04-22 16:55 -2.15227 -79.88288 32 ft 13 kts 300°
2026-04-22 16:55 -2.15180 -79.88370 32 ft 12 kts 300°
2026-04-22 16:55 -2.15131 -79.88392 32 ft 8 kts 12°
2026-04-22 16:55 -2.15075 -79.88363 32 ft 10 kts 30°
2026-04-22 16:56 -2.15016 -79.88329 32 ft 9 kts 30°
2026-04-22 16:56 -2.14987 -79.88326 32 ft 3 kts 331°
2026-04-22 16:56 -2.14970 -79.88352 32 ft 6 kts 298°
2026-04-22 16:56 -2.14957 -79.88375 32 ft 1 kts 300°
2026-04-22 16:57 -2.14957 -79.88376 32 ft 0 kts 300°